Content
SEND FEEDBACK

Daily
Averages
Monthly
Summary
United States of America

ST. LOUIS - SAINT LOUIS UNIVERSITY, MISSOURI


Home > North America > United States > Missouri
Elevation: 580 feet     Latitude: 38 38N     Longitude: 090 14W

WEATHER
 
SELECT A DAY
Number of Records: 185,881;   Date Range: 1/1/95 - 7/7/14
 
SHARE

PRINT THIS DATA

[ ← Previous Day ]
WEATHER ALMANAC - MAY 8, 2013
[ Next Day → ]
[ °C ]   °F
Weather ElementAverageHighLow
Temperature60.9 °F81 °F (1:53 pm)50 °F (5:32 am)
Dewpoint52 °F59 °F (10:53 am)45 °F (11:53 am)
Humidity78 %100 % (1:23 am)31 % (11:53 am)
Barometer30.00 in30.04 in (6:53 am)29.96 in (4:53 pm)
Wind Speed0.8 mph9.2 mph (7:53 pm)
Weather ElementAverage
Visibility5.5 mi
Wind DirectionNNE (26.3 °)

Weather ElementTotal
Precipitation---
Cooling Degree Days0.5 (Base 65)
Growing Degree Days15.5 (Base 50)
Averaged from 40 records on May 8, 2013
WEATHER CONDITIONS BREAKOUT
WIND DIRECTION BREAKOUT
WEATHER BY HOUR - MAY 8, 2013
[ °C ]   °F
Local TimeTemperatureDewpointHumidityBarometerVisibilityWind DirectionWind SpeedGust SpeedPrecipitationEventsConditions
1:08 AM55.4 °F53.6 °F94 %29.99 in7.0 miCalmClear
1:23 AM53.6 °F53.6 °F100 %29.99 in1.8 miCalmClear
1:53 AM54.0 °F52.0 °F93 %29.98 in1.5 miCalmClear
2:10 AM53.6 °F51.8 °F94 %29.98 in3.0 miCalmClear
2:53 AM53.1 °F52.0 °F96 %29.98 in8.0 miCalmClear
3:37 AM53.6 °F51.8 °F94 %29.99 in1.8 miCalmClear
3:53 AM51.1 °F50.0 °F96 %29.99 in3.0 miCalmClear
4:05 AM51.8 °F51.8 °F100 %30.00 in1.8 miCalmClear
4:16 AM51.8 °F50.0 °F94 %30.00 in0.2 miCalmFogFog
4:24 AM51.8 °F51.8 °F100 %30.00 in0.8 miCalmClear
4:32 AM51.8 °F51.8 °F100 %30.00 in1.0 miCalmClear
4:43 AM51.8 °F50.0 °F94 %30.00 in3.0 miCalmClear
4:50 AM51.8 °F50.0 °F94 %30.00 in0.8 miCalmClear
4:53 AM51.1 °F50.0 °F96 %30.00 in0.5 miCalmFogFog
5:13 AM51.8 °F50.0 °F94 %30.00 in1.5 miCalmClear
5:19 AM51.8 °F50.0 °F94 %30.00 in3.0 miCalmClear
5:32 AM50.0 °F48.2 °F94 %30.01 in1.8 miCalmClear
5:35 AM50.0 °F48.2 °F94 %30.01 in0.8 miCalmMist
5:44 AM51.8 °F48.2 °F88 %30.01 in0.2 miCalmFogFog
5:53 AM50.0 °F48.9 °F96 %30.01 in0.2 miCalmFogFog
6:17 AM51.8 °F50.0 °F94 %30.02 in1.0 miCalmClear
6:25 AM50.0 °F50.0 °F100 %30.02 in3.0 miCalmClear
6:53 AM52.0 °F52.0 °F100 %30.04 in4.0 miCalmClear
7:53 AM61.0 °F55.9 °F83 %30.04 in10.0 miCalmClear
8:53 AM66.0 °F57.0 °F73 %30.04 in10.0 miCalmClear
9:53 AM71.1 °F57.0 °F61 %30.04 in10.0 miCalmClear
10:53 AM77.0 °F59.0 °F54 %30.04 in10.0 miCalmClear
11:53 AM78.1 °F45.0 °F31 %30.04 in10.0 miCalmClear
12:53 PM78.1 °F52.0 °F40 %30.02 in10.0 miSSW (210°)5.8 mphClear
1:53 PM81.0 °F48.9 °F33 %30.01 in10.0 miCalmClear
2:53 PM81.0 °F48.9 °F33 %30.00 in10.0 miCalmClear
3:53 PM80.1 °F48.0 °F32 %29.98 in10.0 miCalmClear
4:53 PM78.1 °F50.0 °F37 %29.96 in10.0 miSSE (150°)8.1 mphMostly Cloudy
5:53 PM77.0 °F54.0 °F45 %29.96 in10.0 miSE (130°)3.5 mphOvercast
6:53 PM73.9 °F54.0 °F50 %29.98 in10.0 miWest (260°)6.9 mphOvercast
7:53 PM72.0 °F54.0 °F53 %29.99 in10.0 miWNW (300°)9.2 mph0.00 inRainLight Rain
8:53 PM68.0 °F59.0 °F73 %29.99 in10.0 miCalm0.00 inOvercast
9:53 PM69.1 °F57.0 °F65 %29.99 in10.0 miCalmMostly Cloudy
10:53 PM64.9 °F57.9 °F78 %29.98 in10.0 miCalmOvercast
11:53 PM64.9 °F57.9 °F78 %29.98 in10.0 miCalmOvercast
Hourly data recorded from KCPS, located miles away from St. Louis - Saint Louis University, Missouri







STORIES FROM OUR PARTNERS